DIAMANT DEB, 2685

Orbit data source: Space-Track

DIAMANT DEB, 2685 is space debris in LEO originally from a launch on Wed, 15 Feb 1967 UTC launched from the Hamma Guira Space Track Range (HGSTR). Debris objects in space refer to the collection of defunct objects orbiting the Earth. Examples of debris include non-operational satellites, rocket bodies, and fragments generated from explosions, collisions, or faulty payload assembly.

Loading next visibility...
Identifier
2685, 1967-014F
Orbit
LEO
Country
Flag of FRFR
Related business
Manufacturer
Unknown
Mission
Spacecraft
Bus & Motor
Unknown
Mass
Unknown
Launch date (UTC)
1967-02-15 (59 years ago)
Launch vehicle
Unknown
Launch site
Hamma Guira Space Track Range (HGSTR)
Object type
Payload
Rocket body
Debris
Shape & HBR
Unknown shape, 0.1 m
Radar Cross Section
Small (<0.1 m²)

Expand to show TLE details & history
Last TLE update: 12 hours ago

TLE from 12 hours ago
0 DIAMANT DEB
1  2685U 67014F   25306.46369576  .00005776  00000-0  10210-2 0  9992
2  2685  38.9320 211.2450 0356166 321.3152  36.2580 14.33613734934888
Epoch: 2025-11-02T11:07Z
TLE epoch observation values (Epoch: 2025-11-02T11:07:43.313Z)
Latitude
Longitude
2.33548°
Altitude
576.815 km
Speed
7.68 km/s
True Right ascension
14h 04m 58s
True Declination
0° 00' 00"
Sunlit
Object was in daylight at epoch
Visualization orbit readout
Latitude
Unknown
Longitude
Unknown
Altitude
Unknown
Speed
Unknown
Apparent Right ascension
Unknown
Apparent Declination
Unknown
Sunlit
N/A
Visualization observer readout
Local Sidereal Time
19:05:39
Azimuth
Unknown
Elevation
Unknown
Doppler factor
Unknown
Orbital elements
Apogee altitude
1,037.222 km
Perigee altitude
527.168 km
Semi-major axis
7,160.332 km
Eccentricity
0.03562
Inclination
38.932°
RAAN
211.245°
Arg. of periapsis
321.3152°
True anomaly
38.76075°
Mean anomaly
36.258°
Eccentric anomaly
37.5003°
Mean motion
3.58215 °/min
Orbital period
100.5 mins
BSTAR
0.001021
Loading maneuver chart data...
Computing Atmospheric mass density...
Loading historical data...
Loading historical data...
Loading historical data...
Loading historical data...
Loading historical data...
Loading historical data...
Loading historical data...

Documentation

Showing up to 5 results
|